Location: The Saddle
(36.8333°N, 80.3417°W)
Time: 08:38:44
(UTC-05:00)

S-56A Canister/Altair - Pass Details

Date: 18 December 2023
Orbit: 640 x 2488 km, 38.9° (Epoch: 25 February)

Event Time Altitude Azimuth Distance (km) Brightness Sun altitude
Rises 13:26:16 0° 282° (WNW) 3,221 10.8 27.7°
Reaches altitude 10° 13:29:10 10° 269° (W) 2,147 10.2 27.5°
Maximum altitude 13:33:04 25° 214° (SSW) 1,284 10.9 27.2°
Drops below altitude 10° 13:36:46 10° 157° (SSE) 2,026 10.5 27.0°
Sets 13:39:25 0° 144° (SE) 2,997 11.0 26.8°
